Weather in Vishnevoye

Ukraine / Odesa District     47°41′03″N   29°44′01″E
temp.,
°C
wind,
m/s
gust,
m/s
humid.,
%
clouds,
%
prec.,
mm/h
press.,
hPa
HPBL,
m
10 may, mon
mon1000:00+8ssw11545 0.0 102610
03:00+7ssw12585 0.0 102610
06:00+6s11644 0.0 102610
09:00+12se22515 0.0 1027376
12:00+16se21425 0.0 10261620
15:00+18se11380 0.0 10241837
18:00+18nne22412 0.0 10221864
21:00+12ene34623 0.0 102356
11 may, tue
tue1100:00+9ene35670 0.0 102365
03:00+7ne22650 0.0 102316
06:00+6n33715 0.0 102230
09:00+13n575770 0.0 1021506
12:00+16n455160 0.0 1020755
15:00+19n455530 0.0 10181003
18:00+19nne566289 0.0 10171313
21:00+15ene498488 0.3 1016301
12 may, wed
wed1200:00+13ene4888100 0.0 1017499
03:00+12ene478899 0.1 1015496
06:00+7ene510860 0.0 1016335
09:00+10ene677468 0.0 1016902
12:00+11ene455881 0.0 10151219
15:00+15e655034 0.0 10141691
18:00+13ese655677 0.0 10131050
21:00+9se33700 0.0 101342
13 may, thu
thu1300:00+7se33760 0.0 101336
03:00+6se34806 0.0 101251
06:00+7se487999 0.0 1012195
09:00+11se5871100 0.0 1011435
12:00+16sse7859100 0.0 10101192
15:00+17sse6859100 0.0 10101330
18:00+17sse6966100 0.3 10091174
21:00+13se3880100 0.3 1009210
14 may, fri
fri1400:00+11sse388225 0.0 1009212
03:00+8s34913 0.0 100960
06:00+9s2386100 0.0 100950
09:00+14s3373100 0.0 1009382
12:00+19ssw3459100 0.0 1010877
15:00+14w2285100 0.6 101099
18:00+16se1276100 1.6 1010238
21:00+13s0093100 4.7 101011